User: anonymous   Login
Location: Unspecified
(0.0000°N, 0.0000°E)
Time: 12:56:16
(UTC+00:00)
Language:

Tiangong - Orbit

View from above orbital plane
View from above orbital plane
View from above satellite
View from above satellite

Ground track
Ground track

The orbit data is extracted from the following two-line orbital elements,

1 48274U 21035A   23332.11888294  .00044641  00000-0  48120-3 0  9997
2 48274  41.4708 237.6908 0007267 236.8587 123.1555 15.62844779147464
Epoch (UTC): 28 November 2023 02:51:11
Eccentricity: 0.0007267
inclination: 41.4708°
perigee height: 374 km
apogee height: 384 km
right ascension of ascending node: 237.6908°
argument of perigee: 236.8587°
revolutions per day: 15.62844779
mean anomaly at epoch: 123.1555°
orbit number at epoch: 14746

The dashed part of the orbit path shows where the satellite is in the earth's shadow,  

DLR